Miscellaneous Local Product
Issued by NWS North Platte, NE

Home | Current Version | Previous Version | Graphics & Text | Print | Product List | Glossary On
Versions: 1 2 3 4 5 6 7 8 9 10 11 12 13 14 15 16 17 18 19 20 21 22 23 24 25 26 27 28 29 30 31 32 33 34 35 36 37 38 39 40 41 42 43 44 45 46 47 48 49 50
000
AXUS43 KLBF 290410
MISLBF


WESTERN AND NORTH CENTRAL NEBRASKA HOURLY WEATHER ROUNDUP
NATIONAL WEATHER SERVICE NORTH PLATTE NE
1100 PM CDT THU APR 28 2016

NOTE: "FAIR" INDICATES FEW OR NO CLOUDS BELOW 12,000 FEET WITH NO
SIGNIFICANT WEATHER AND/OR OBSTRUCTIONS TO VISIBILITY.

NOTE: STATIONS NOT REPORTING VARIABLES SUCH AS SKY/WEATHER OR
PRESSURE ARE PROVIDED BY RAWS AND APRS NETWORKS AND ARE NOT UNDER
NATIONAL WEATHER SERVICE QUALITY CONTROL.

...OBSERVATIONS IN AND NEAR THE EASTERN PANHANDLE OF NEBRASKA...

CITY           SKY/WX    TMP DP  RH WIND       PRES   REMARKS
PINE RIDGE     CLOUDY    37  34  89 N6        30.13R WCI  32
CHADRON        LGT RAIN  39  36  89 NE3       30.14R
ALLIANCE       CLOUDY    34  34 100 W3        30.11R
SIDNEY         CLOUDY    36  33  89 N7        30.10R WCI  30
CRESCENT LAKE    N/A     35  34  96 NW6         N/A  WCI  30
BIG SPRINGS      N/A     43  38  82 N3          N/A
$$

...OBSERVATIONS IN NORTHERN NEBRASKA AND FAR SOUTHERN SOUTH DAKOTA...

CITY           SKY/WX    TMP DP  RH WIND       PRES   REMARKS
WINNER         CLOUDY    43  38  82 NE3       30.12S
VALENTINE      CLOUDY    39  36  89 NW6       30.12R WCI  35
THEDFORD       CLOUDY    40  38  91 N5        30.13R
AINSWORTH      CLOUDY    39  38  97 N8        30.11R WCI  34
O`NEILL        CLOUDY    40  39  93 N6        30.12R
ORD            CLOUDY    42  38  85 CALM      30.11R
BROKEN BOW     CLOUDY    42  39  89 NE7       30.11R
VALENTINE NWR    N/A     38  36  94 N8          N/A  WCI  32
BUTTE            N/A     39  38  97 NW3         N/A
HALSEY           N/A     40  38  92 N3          N/A
CHAMBERS         N/A     41  40  95 CALM        N/A
EWING            N/A     41  39  94 N5          N/A
$$

...OBSERVATIONS IN SOUTHWEST NEBRASKA AND FAR NORTHEAST COLORADO...

CITY           SKY/WX    TMP DP  RH WIND       PRES   REMARKS
IMPERIAL       CLOUDY    44  39  82 NE5       30.10R
OGALLALA       CLOUDY    42  37  81 N5        30.11R
NORTH PLATTE   CLOUDY    43  39  86 NE9       30.11R
MCCOOK         CLOUDY    45  40  82 NE6       30.11R
LEXINGTON      CLOUDY    45  42  90 CALM      30.11S
PAXTON           N/A     44  39  83 CALM        N/A
STAPLETON        N/A     41  38  89 CALM        N/A
GOTHENBURG       N/A     45  38  77 CALM        N/A
CALLAWAY         N/A     41  38  91 NE3         N/A
$$

...OBSERVATIONS IN CENTRAL LINCOLN COUNTY AREA...

CITY           SKY/WX    TMP DP  RH WIND       PRES   REMARKS
N.P. AIRPORT   CLOUDY    43  39  86 NE9       30.11R
N.P. DOWNTOWN    N/A     44  39  83 MISG        N/A
N.P. SOUTHEAST   N/A     43  38  82 CALM        N/A
N.P. HILLCREST   N/A     42  38  87 E9          N/A
$$

...SOME OBSERVATIONS FROM AROUND THE REGION...

CITY           SKY/WX    TMP DP  RH WIND       PRES   REMARKS
DENVER         CLOUDY    37  32  82 NE10      30.04R WCI  30
LARAMIE        CLOUDY    30  26  85 SE16      30.00R WCI  19
CHEYENNE       CLOUDY    34  32  92 S6        30.03F WCI  29
SCOTTSBLUFF    CLOUDY    38  34  85 NE5       30.11S WCI  34
RAPID CITY     CLOUDY    37  34  89 NW3       30.14R
BISMARCK       CLOUDY    47  32  56 NE7       30.16R
PIERRE         CLOUDY    43  38  82 N3        30.13R
SIOUX FALLS    CLOUDY    39  35  86 NE5       30.11S
OMAHA          CLOUDY    46  41  82 NW6       30.11R
GRAND ISLAND   CLOUDY    44  39  82 NE7       30.13R
KANSAS CITY    CLOUDY    51  46  83 N7        30.06S
WICHITA        CLOUDY    60  48  64 NE13      30.02R
OKLAHOMA CITY  MOCLDY    64  52  64 NE13      29.88R
DALLAS         PTCLDY    76  58  53 SE10      29.79F
AMARILLO       MOCLDY    59  54  83 E29G35    29.83S
DODGE CITY     CLOUDY    52  41  66 NE14      30.01R
HAYS           MOCLDY    50  37  62 E10       30.07R
GOODLAND       CLOUDY    41  37  86 NE9       30.05S
$$




USA.gov is the U.S. government's official web portal to all federal, state and local government web resources and services.